Location: Keewatin
(47.4004°N, 93.0827°W)
Time: 10:27:58
(UTC+00:00)

ZACube-1 - Pass Details

Date: 02 March 2020
Orbit: 583 x 667 km, 97.6° (Epoch: 06 April)

Event Time Altitude Azimuth Distance (km) Brightness Sun altitude
Rises 10:50:28 0° 32° (NNE) 3,010 ? -20.9°
Reaches altitude 10° 10:54:12 10° 63° (ENE) 2,078 ? -20.3°
Maximum altitude 10:55:57 12° 86° (E) 1,935 ? -20.0°
Drops below altitude 10° 10:57:40 10° 109° (ESE) 2,057 ? -19.7°
Sets 11:01:18 0° 141° (SE) 2,940 ? -19.1°
